Location: Barrio Las Umbrías
(40.4173°N, 4.8685°W)
Time: 13:04:50
(UTC+00:00)

USA 234 - Pass Details

Date: 17 August 2022
Orbit: 1101 x 1106 km, 123.0° (Epoch: 25 September)

Event Time Altitude Azimuth Distance (km) Brightness Sun altitude
Rises 22:24:39 0° 48° (NE) 3,925 6.3 -29.7°
Reaches altitude 10° 22:27:10 10° 52° (NE) 2,965 5.6 -30.0°
Enters shadow 22:31:03 38° 66° (ENE) 1,632 4.0 -30.4°
